Hourly Data Report for October 12, 2015

All times are specified in Local Standard Time (LST). Add 1 hour to adjust for Daylight Saving Time where and when it is observed.

BAKER LAKE A
NUNAVUT

64°17'56.000" N
96°04'40.000" W
18.60 m
2300503
71926
YBK

Download Data

Hourly Data (October 2015)
Hourly Data Report for October 12, 2015
Temp Definition
°C
Dew Point Temp Definition
°C
Rel Hum Definition
%
Wind Dir Definition
10's deg

Wind Spd Definition
km/h
Visibility Definition
km
Stn Press Definition
kPa
Hmdx Definition


Wind Chill Definition


Weather Definition


TIME
00:00 Legend Double Dagger -4.2 -5.8 89 16 20 24.1 100.42   -11 Snow
01:00 Legend Double Dagger -4.1 -5.1 93 17 17 12.9 100.38   -10 Snow
02:00 Legend Double Dagger -4.3 -5.7 90 17 17 16.1 100.33   -10 Snow
03:00 Legend Double Dagger -4.4 -5.8 90 18 18 16.1 100.30   -10 Snow
04:00
05:00 Legend Double Dagger -4.2 -5.2 93 24 7 16.1 100.26   -7 LegendNANA
06:00 Legend Double Dagger -6.3 -8.3 86 32 35 16.1 100.32   -15 Snow
07:00 Legend Double Dagger -7.6 -9.7 85 31 36 24.1 100.37   -17 Snow
08:00 Legend Double Dagger -9.4 -11.3 86 31 35 32.2 100.39   -19 Blowing Snow
09:00 Legend Double Dagger -8.1 -10.7 82 31 31 32.2 100.43   -17 Blowing Snow
10:00 Legend Double Dagger -8.0 -10.6 82 30 32 32.2 100.46   -17 Snow,Blowing Snow
11:00 Legend Double Dagger -8.5 -11.4 80 30 32 32.2 100.44   -18 Blowing Snow
12:00 Legend Double Dagger -8.5 -12.2 75 29 22 32.2 100.45   -16 Blowing Snow
13:00 Legend Double Dagger -7.5 -11.0 76 29 34 32.2 100.38   -17 LegendNANA
14:00 Legend Double Dagger -5.9 -8.8 80 28 30 32.2 100.31   -14 LegendNANA
15:00 Legend Double Dagger -5.1 -7.9 81 28 25 32.2 100.30   -12 Cloudy
16:00 Legend Double Dagger -5.2 -9.0 75 31 40 32.2 100.31   -14 LegendNANA
17:00 Legend Double Dagger -5.4 -8.7 78 30 31 32.2 100.36   -14 LegendNANA
18:00 Legend Double Dagger -6.8 -9.5 81 30 28 32.2 100.37   -15 Mainly Clear
19:00 Legend Double Dagger -7.2 -9.8 82 31 36 24.1 100.40   -17 LegendNANA
20:00 Legend Double Dagger -7.3 -10.2 80 30 30 24.1 100.41   -16 LegendNANA
21:00 Legend Double Dagger -6.9 -9.6 81 31 41 24.1 100.42   -17 Mainly Clear
22:00 Legend Double Dagger -8.7 -11.2 82 30 26 24.1 100.48   -17 LegendNANA
23:00 Legend Double Dagger -9.6 -12.0 83 31 25 24.1 100.50   -18 LegendNANA

Notes on Data Quality.

Legend

  • E = Estimated
  • M = Missing
  • NA = Not Available
  • ‡ = Partner data that is not subject to review by the National Climate Archives
Date modified: